Weather History for EGJA - March, 2013

Change the Weather History Date:

Saturday, March 23, 2013

  Actual Average Record
Temperature  
Mean Temperature 44 °F -  
Max Temperature 48 °F 52 °F 59 °F (2005)
Min Temperature 41 °F 44 °F 39 °F (2006)
Degree Days  
Heating Degree Days 20    
Moisture  
Dew Point 45 °F    
Average Humidity 99    
Maximum Humidity 100    
Minimum Humidity 93    
Precipitation  
Precipitation 0.00 in - - ()
Sea Level Pressure  
Sea Level Pressure 29.69 in    
Wind  
Wind Speed 6 mph ()    
Max Wind Speed 20 mph    
Max Gust Speed -    
Visibility 2.1 miles    
Events Fog    
Averages and records for this station are not official NWS values.
T = Trace of Precipitation, MM = Missing Value Source: Averaged Metar Reports

Daily Weather History Graph

Daily Weather History Graph

Search for Another Location

Airport or City:

Trip Planner

Search our weather history database for the weather conditions in past years. The results will help you decide how hot, cold, wet, or windy it might be!

Date:

Astronomy

Mar. 23, 2013 Rise Set
Actual Time 6:05 AM GMT 6:26 PM GMT
Civil Twilight 5:32 AM GMT 6:58 PM GMT
Nautical Twilight 4:54 AM GMT 7:36 PM GMT
Astronomical Twilight 4:15 AM GMT 8:16 PM GMT
Moon 2:20 PM GMT (3/23) 3:53 AM GMT (3/23)
Length of Visible Light 13h 25m
Length of Day
12h 21m
Waxing Gibbous, 83% of the Moon is Illuminated
Mar 23
Waxing Gibbous
Mar 27
Full
Apr 3
Last Quarter
Apr 10
New
Apr 18
First Quarter

Hourly Weather History & Observations

Time (GMT) Temp. Windchill Dew Point Humidity Pressure Visibility Wind Dir Wind Speed Gust Speed Precip Events Conditions
6:50 AM 44.6 °F 43.1 °F 44.6 °F 100% 29.65 in 1.2 mi NW 3.5 mph - N/A Fog Mostly Cloudy
7:20 AM 44.6 °F - 44.6 °F 100% 29.65 in 0.1 mi Calm Calm - N/A Fog Fog
7:50 AM 46.4 °F 45.2 °F 44.6 °F 93% 29.65 in 0.4 mi West 3.5 mph - N/A Fog Fog
8:20 AM 46.4 °F - 46.4 °F 100% 29.68 in 0.7 mi West 2.3 mph - N/A Fog Mostly Cloudy
8:50 AM 46.4 °F 45.2 °F 46.4 °F 100% 29.68 in 0.6 mi West 3.5 mph - N/A Fog Fog
9:20 AM 46.4 °F 45.2 °F 46.4 °F 100% 29.68 in 0.4 mi Variable 3.5 mph - N/A Fog Fog
9:50 AM 46.4 °F 44.3 °F 46.4 °F 100% 29.68 in 2.8 mi WNW 4.6 mph - N/A   Mostly Cloudy
10:20 AM 46.4 °F - 46.4 °F 100% 29.68 in 2.8 mi Variable 2.3 mph - N/A   Mostly Cloudy
10:50 AM 46.4 °F 45.2 °F 46.4 °F 100% 29.68 in 2.8 mi NNW 3.5 mph - N/A   Mostly Cloudy
11:20 AM 48.2 °F - 46.4 °F 93% 29.68 in 6.2 mi NNW 3.5 mph - N/A   Mostly Cloudy
11:50 AM 46.4 °F 45.2 °F 46.4 °F 100% 29.68 in 6.2 mi NNW 3.5 mph - N/A   Scattered Clouds
12:20 PM 48.2 °F - 46.4 °F 93% 29.71 in 6.2 mi North 3.5 mph - N/A   Mostly Cloudy
12:50 PM 46.4 °F 45.2 °F 46.4 °F 100% 29.71 in 6.2 mi SW 3.5 mph - N/A   Mostly Cloudy
1:20 PM 46.4 °F 42.9 °F 46.4 °F 100% 29.71 in 0.3 mi NE 6.9 mph - N/A Fog Fog
1:50 PM 46.4 °F 40.7 °F 46.4 °F 100% 29.71 in 0.5 mi ENE 12.7 mph - N/A Fog Fog
2:20 PM 46.4 °F 40.4 °F 46.4 °F 100% 29.71 in 0.2 mi ENE 13.8 mph - N/A Fog Fog
2:50 PM 44.6 °F 38.1 °F 44.6 °F 100% 29.71 in 0.2 mi ENE 13.8 mph - N/A Fog Fog
3:20 PM 42.8 °F 35.4 °F 42.8 °F 100% 29.71 in 0.4 mi ENE 15.0 mph - N/A Fog Fog
3:50 PM 42.8 °F 35.1 °F 42.8 °F 100% 29.71 in 0.7 mi ENE 16.1 mph - N/A Fog Mostly Cloudy
4:20 PM 42.8 °F 34.8 °F 42.8 °F 100% 29.71 in 1.2 mi ENE 17.3 mph - N/A Fog Mostly Cloudy
4:50 PM 42.8 °F 34.5 °F 42.8 °F 100% 29.71 in 1.9 mi ENE 18.4 mph - N/A Fog Mostly Cloudy
5:20 PM 42.8 °F 35.1 °F 42.8 °F 100% 29.71 in 2.5 mi ENE 16.1 mph - N/A   Mostly Cloudy
5:50 PM 41.0 °F 32.8 °F 41.0 °F 100% 29.71 in 2.5 mi ENE 16.1 mph - N/A   Mostly Cloudy
6:20 PM 41.0 °F 32.5 °F 41.0 °F 100% 29.71 in 2.5 mi ENE 17.3 mph - N/A   Mostly Cloudy
7:20 PM 41.0 °F 31.9 °F 41.0 °F 100% 29.71 in 2.5 mi NE 19.6 mph - N/A   Mostly Cloudy